Roseburg, OR

8:16 AM PDT on March 29, 2017 (GMT -0700)
Roseburg Regional

Weather History for KRBG - April, 2014

Change the Weather History Date:

Tuesday, April 29, 2014

  Actual Average Record
Temperature  
Mean Temperature 63 °F 55 °F  
Max Temperature 82 °F 66 °F 92 °F (1998)
Min Temperature 43 °F 44 °F 28 °F (1954)
Degree Days  
Heating Degree Days 2 10  
Month to date heating degree days 290 375  
Since 1 July heating degree days 3614 3754  
Cooling Degree Days 0 0  
Month to date cooling degree days 0 0  
Year to date cooling degree days 0 0  
Growing Degree Days 12 (Base 50)    
Moisture  
Dew Point 45 °F    
Average Humidity 59    
Maximum Humidity 89    
Minimum Humidity 28    
Precipitation  
Precipitation 0.00 in 0.08 in 0.83 in (1957)
Month to date precipitation 1.60 2.74  
Year to date precipitation 14.01 15.28  
Sea Level Pressure  
Sea Level Pressure 30.34 in    
Wind  
Wind Speed 3 mph (NW)    
Max Wind Speed 13 mph    
Max Gust Speed 16 mph    
Visibility 10 miles    
Events      
T = Trace of Precipitation, MM = Missing Value Source: NWS Daily Summary

Daily Weather History Graph

Daily Weather History Graph

Search for Another Location

Airport or City:

Trip Planner

Search our weather history database for the weather conditions in past years. The results will help you decide how hot, cold, wet, or windy it might be!

Date:

Astronomy

Apr. 29, 2014 Rise Set
Actual Time 6:09 AM PDT 8:12 PM PDT
Civil Twilight 5:38 AM PDT 8:43 PM PDT
Nautical Twilight 5:00 AM PDT 9:22 PM PDT
Astronomical Twilight 4:18 AM PDT 10:04 PM PDT
Moon 6:31 AM PDT 8:59 PM PDT
Length of Visible Light 15h 05m
Length of Day
14h 03m
New Moon, 0% of the Moon is Illuminated
Apr 29
New Moon
May 6
First Quarter
May 14
Full
May 21
Last Quarter
May 28
New

Hourly Weather History & Observations

Time (PDT) Temp. Windchill Dew Point Humidity Pressure Visibility Wind Dir Wind Speed Gust Speed Precip Events Conditions
12:53 AM 48.9 °F - 43.0 °F 80% 30.36 in 10.0 mi Calm Calm - N/A   Clear
1:53 AM 48.0 °F - 42.1 °F 80% 30.38 in 10.0 mi Calm Calm - N/A   Clear
2:53 AM 46.9 °F - 42.1 °F 83% 30.39 in 10.0 mi Calm Calm - N/A   Clear
3:53 AM 45.0 °F - 41.0 °F 86% 30.39 in 10.0 mi Calm Calm - N/A   Clear
4:53 AM 44.1 °F - 41.0 °F 89% 30.40 in 10.0 mi Calm Calm - N/A   Clear
5:53 AM 43.0 °F - 39.9 °F 89% 30.41 in 10.0 mi Calm Calm - N/A   Clear
6:53 AM 44.1 °F - 39.9 °F 85% 30.42 in 10.0 mi Calm Calm - N/A   Clear
7:13 AM 45.0 °F - 41.0 °F 86% 30.42 in 10.0 mi Calm Calm - N/A   Scattered Clouds
7:22 AM 45.0 °F - 41.0 °F 86% 30.41 in 10.0 mi Calm Calm - N/A   Mostly Cloudy
7:33 AM 45.0 °F - 42.1 °F 90% 30.42 in 9.0 mi Calm Calm - N/A   Scattered Clouds
7:53 AM 46.0 °F 44.8 °F 42.1 °F 86% 30.43 in 9.0 mi SSE 3.5 mph - N/A   Clear
8:53 AM 51.1 °F - 44.1 °F 77% 30.43 in 10.0 mi SE 3.5 mph - N/A   Clear
9:53 AM 55.9 °F - 44.1 °F 64% 30.42 in 10.0 mi Calm Calm - N/A   Clear
10:53 AM 60.1 °F - 43.0 °F 53% 30.40 in 10.0 mi SSW 3.5 mph - N/A   Clear
11:53 AM 66.0 °F - 45.0 °F 47% 30.38 in 10.0 mi Variable 3.5 mph - N/A   Clear
12:53 PM 69.1 °F - 48.0 °F 47% 30.35 in 10.0 mi SW 5.8 mph - N/A   Clear
3:53 PM 80.1 °F - 48.9 °F 34% 30.27 in 10.0 mi Variable 3.5 mph - N/A   Clear
4:53 PM 81.0 °F - 46.0 °F 29% 30.25 in 10.0 mi NNW 8.1 mph - N/A   Clear
5:53 PM 81.0 °F - 45.0 °F 28% 30.23 in 10.0 mi NW 6.9 mph - N/A   Clear
6:53 PM 80.1 °F - 48.0 °F 32% 30.22 in 10.0 mi NNW 4.6 mph - N/A   Clear
7:53 PM 77.0 °F - 51.1 °F 40% 30.22 in 10.0 mi North 11.5 mph - N/A   Clear
8:53 PM 72.0 °F - 51.1 °F 48% 30.23 in 10.0 mi Variable 3.5 mph - N/A   Clear
9:53 PM 68.0 °F - 52.0 °F 56% 30.25 in 10.0 mi NNW 3.5 mph - N/A   Clear
10:53 PM 63.0 °F - 52.0 °F 67% 30.26 in 10.0 mi NW 3.5 mph - N/A   Clear
11:53 PM 60.1 °F - 52.0 °F 75% 30.27 in 10.0 mi Calm Calm - N/A   Clear